Wind_Speed
12 12 12 12 13 11 9 8 8 7 7 8 8 8 7 6 6 6 7 6 6 6 5 6 6 6 6 6 6 6 6 7 7 7 8 10 11 11 12 12 12 11 11 11 11 10 10 10 9
11 12 12 12 13 10 8 8 8 8 8 8 8 7 7 6 6 6 6 6 6 6 5 5 5 5 6 6 6 6 7 7 7 7 9 10 10 10 11 12 12 12 12 12 12 11 10 10 9
11 11 12 13 11 9 9 9 9 9 8 8 7 7 7 7 6 5 5 5 5 6 6 6 5 5 5 5 5 6 7 7 7 7 9 10 10 11 12 13 12 12 12 12 11 10 10 9 8
12 11 12 12 10 9 9 9 9 9 9 8 8 7 7 7 6 6 5 6 6 6 6 6 6 5 5 5 5 6 7 8 8 8 9 10 11 11 12 12 12 12 12 11 11 9 9 8 7
12 12 12 10 9 9 9 9 9 9 9 9 9 8 8 8 8 8 7 7 6 6 6 6 6 5 5 6 6 6 7 8 9 9 10 10 11 11 11 11 12 12 11 10 9 8 9 8 7
11 12 11 10 9 9 9 9 9 9 9 9 10 9 9 8 8 8 8 8 7 7 7 7 6 6 6 6 6 6 7 8 10 10 10 11 12 11 11 11 11 10 10 9 8 8 7 7 7
11 11 10 10 10 9 9 9 10 10 10 10 10 10 10 9 8 8 8 8 8 7 8 7 7 8 8 7 6 7 7 9 10 11 11 12 12 11 11 10 10 9 9 9 8 8 7 6 6
10 10 10 10 10 9 9 10 10 11 11 10 10 10 10 9 9 9 9 8 8 8 8 8 8 8 8 8 7 8 8 10 11 12 12 11 10 10 10 10 9 9 8 8 8 7 7 5 5
9 10 9 9 10 10 10 10 10 10 11 11 10 10 9 9 8 8 8 8 7 8 8 8 8 8 8 8 8 9 10 11 11 11 11 11 11 10 9 9 9 8 8 7 7 7 6 5 4
9 10 8 8 9 9 10 10 10 10 11 11 11 11 10 9 8 8 8 7 8 8 8 8 8 8 9 9 9 10 11 11 11 10 10 11 11 10 9 9 8 8 7 6 6 6 6 5 3
8 8 7 7 8 9 9 9 10 10 10 10 10 10 10 9 8 8 8 8 8 8 8 9 9 9 9 9 9 10 10 11 10 10 10 10 10 9 9 9 8 7 7 6 5 6 5 4 3
7 7 7 7 7 7 8 8 9 9 9 9 9 9 9 9 8 8 8 8 8 8 8 8 9 9 9 9 9 9 10 10 10 10 10 10 9 9 8 7 7 7 7 6 5 5 4 3 2
5 5 6 5 5 6 7 7 7 8 8 8 8 8 8 8 8 8 8 8 8 8 8 8 8 9 9 9 8 8 8 8 8 9 9 9 8 8 8 7 6 6 6 5 5 5 3 2 1
4 4 4 4 5 5 6 6 6 7 7 7 7 7 7 7 7 7 7 7 7 8 7 8 8 8 8 8 8 7 7 7 7 7 8 8 7 7 7 6 6 5 5 4 4 3 2 1 1
3 2 3 3 4 5 4 5 6 6 7 7 7 7 7 7 7 7 6 6 6 6 7 7 8 8 8 8 8 7 7 6 5 6 7 7 7 6 6 6 5 5 4 3 3 3 2 2 1
2 1 1 2 3 4 4 4 4 5 5 6 6 6 6 6 6 6 5 5 5 5 6 6 6 7 7 7 7 6 6 6 5 5 6 7 7 6 5 4 4 4 4 3 3 2 2 1 1
1 1 2 1 2 2 3 3 3 4 4 4 5 5 5 5 5 5 5 4 4 4 4 5 6 6 6 6 6 5 5 5 5 5 5 6 6 5 5 4 3 3 2 2 2 2 2 2 1
4 3 3 3 1 1 2 3 3 3 3 3 3 3 3 3 4 5 4 4 4 4 5 5 5 5 5 5 5 4 4 4 5 5 5 5 5 4 4 3 2 2 1 1 1 1 1 1 2
5 4 4 3 2 2 1 1 1 2 2 2 2 2 2 2 3 4 4 4 4 4 4 4 4 4 4 4 4 3 3 4 4 4 4 4 4 3 3 2 2 1 1 1 1 1 2 2 3
6 6 5 5 4 3 2 1 1 1 1 0 1 0 1 1 1 3 3 3 3 3 3 3 3 2 2 2 3 3 3 3 3 3 3 3 2 2 2 1 2 1 0 1 2 2 2 3 3
8 7 7 7 5 4 3 2 2 2 2 1 1 1 1 1 1 0 1 2 2 2 2 1 2 2 1 1 1 2 3 2 2 2 2 2 1 1 1 1 1 1 2 2 2 3 4 4 4
11 10 9 7 6 5 4 3 3 3 3 3 3 2 2 2 2 1 1 1 1 1 1 1 1 1 1 1 1 2 1 0 1 1 2 2 2 2 2 2 2 3 3 3 3 3 4 4 5
14 12 10 9 8 7 7 6 5 5 4 5 5 4 3 3 3 3 3 2 2 2 2 1 1 1 1 1 0 1 2 2 2 2 2 3 3 3 4 4 4 4 5 5 5 5 6 5 6
15 13 12 10 9 9 8 7 7 6 6 6 6 6 5 5 5 5 4 4 4 3 3 3 2 3 3 2 2 3 3 3 3 3 4 4 4 5 6 6 6 6 6 6 7 7 7 7 7
15 13 11 10 10 10 10 9 8 7 8 8 8 8 7 7 6 6 6 5 5 5 4 5 5 5 4 4 4 5 5 5 5 5 5 6 6 7 7 7 7 7 8 8 8 8 9 8 8
17 15 14 12 11 12 12 11 9 9 10 9 9 9 9 9 8 8 8 8 8 7 7 6 6 6 6 7 7 7 8 7 7 7 7 8 8 8 8 8 8 8 9 10 10 10 10 9 10
20 19 16 15 14 13 14 14 11 11 12 11 10 10 10 10 10 9 9 10 10 9 9 8 9 8 8 8 8 8 9 9 9 9 9 9 9 9 9 9 9 9 9 10 10 10 10 10 11
23 21 20 18 17 16 15 14 14 13 13 12 12 11 11 12 12 12 11 11 11 11 10 10 10 10 10 10 10 10 11 11 10 10 10 11 11 11 11 10 11 10 11 11 12 11 12 12 13
24 24 23 21 20 17 16 16 16 15 15 14 14 13 14 13 14 14 14 13 13 13 12 12 12 12 11 11 12 12 12 12 12 13 13 12 12 12 12 12 12 12 13 13 13 14 14 15 15
26 26 25 24 23 22 19 18 18 17 16 16 16 16 15 15 16 16 16 15 14 14 13 13 14 14 14 14 14 14 14 13 13 14 14 14 14 13 14 14 14 14 15 15 16 16 16 16 16
Wind_Direction
90 86 86 87 83 80 84 87 89 95 95 95 92 90 91 93 102 109 112 106 100 102 106 108 116 122 121 119 121 118 118 126 125 118 112 114 116 116 124 128 133 135 131 133 137 138 142 144 141
92 87 85 83 81 80 81 85 88 89 93 94 93 91 88 89 99 109 116 105 99 100 99 107 106 106 112 117 118 121 122 132 131 123 120 121 119 122 125 131 134 133 131 133 136 138 141 141 136
93 88 84 81 80 82 81 83 88 87 89 90 87 86 86 88 95 107 116 113 102 100 103 109 103 102 102 107 114 120 123 133 135 131 125 122 127 126 128 128 128 130 131 133 134 135 138 137 134
92 89 82 77 75 76 78 79 83 84 85 86 84 82 83 86 90 108 114 111 103 101 109 106 98 96 99 100 113 123 128 135 138 139 132 128 129 130 126 125 121 126 131 134 132 131 138 136 130
90 86 78 72 70 72 74 74 76 79 83 82 82 83 82 87 90 102 108 106 101 97 103 104 95 95 100 100 106 116 130 137 140 137 136 137 134 131 127 128 126 126 127 129 131 130 136 132 129
90 84 81 74 69 68 65 68 71 74 75 78 82 82 85 88 90 97 103 102 97 93 100 101 95 94 94 99 107 119 129 134 136 134 134 134 133 131 129 128 130 131 131 133 134 133 135 131 129
92 89 83 77 71 68 67 69 73 75 75 78 81 83 88 89 93 100 103 100 98 99 100 101 99 94 93 93 100 110 122 132 135 134 132 129 129 130 129 128 129 130 133 136 138 137 139 132 131
94 88 79 77 72 70 73 74 75 75 76 79 81 84 88 90 93 98 101 98 99 101 99 100 102 96 90 87 93 102 115 130 132 128 127 128 130 130 131 131 132 130 131 134 137 140 141 133 128
95 87 81 79 75 75 76 75 75 75 77 78 80 82 87 90 92 95 98 98 101 103 102 102 100 93 90 92 100 106 110 122 130 131 129 128 129 130 132 136 137 136 135 137 142 147 147 135 124
92 92 86 83 79 77 77 76 76 76 77 76 79 81 81 83 86 88 90 94 99 103 104 107 105 98 95 96 99 104 110 118 125 130 130 127 126 130 136 136 136 139 141 141 143 151 143 138 127
94 91 86 82 83 81 78 76 76 77 79 75 75 76 76 78 82 86 89 93 97 102 106 108 109 104 99 100 100 103 109 117 121 122 128 128 128 130 132 131 133 135 134 134 137 146 141 141 131
96 94 86 81 81 81 77 74 72 76 80 78 75 73 72 74 80 86 89 94 97 101 106 107 108 108 104 104 107 107 108 112 115 117 123 128 127 125 124 126 134 133 130 131 134 143 144 146 143
96 90 84 81 77 79 78 74 70 71 77 79 77 76 69 71 79 87 90 93 96 101 104 105 105 106 108 110 112 113 113 115 115 117 121 122 124 121 124 123 121 127 132 134 132 138 139 136 143
105 89 81 83 83 86 82 77 72 73 81 81 78 76 72 73 81 87 91 94 97 100 105 106 106 107 108 109 111 112 118 119 117 117 123 123 125 126 127 120 116 115 125 127 131 133 145 172 198
120 96 87 82 91 96 89 78 76 83 86 84 78 74 76 80 85 87 93 94 99 101 102 106 105 107 110 112 110 113 118 117 118 119 129 127 129 128 125 122 119 118 126 145 150 153 174 174 182
142 110 86 86 93 102 97 83 87 89 91 88 80 74 73 82 87 87 90 92 97 101 103 103 105 110 112 115 115 114 116 114 113 119 129 129 128 131 130 130 128 122 128 145 150 147 165 188 224
214 196 228 227 99 103 99 109 108 102 96 89 85 78 73 81 92 91 90 92 95 99 103 104 108 113 112 115 118 114 115 119 118 122 125 130 132 130 126 132 133 136 133 143 164 170 183 206 235
220 228 240 238 228 168 117 119 120 118 105 89 86 78 71 75 83 86 88 99 102 101 104 104 109 113 112 107 111 116 116 120 124 123 124 130 138 139 136 130 126 131 139 159 197 246 260 259 277
214 223 241 248 241 229 196 167 149 129 111 91 86 78 64 72 76 76 82 97 106 109 107 102 103 113 108 100 104 113 125 125 119 126 129 133 138 139 133 128 142 131 136 194 267 299 286 283 287
209 224 245 257 260 246 237 240 226 190 163 112 101 103 32 36 53 66 74 86 103 112 111 98 100 108 108 100 104 120 124 122 119 129 133 135 143 144 151 152 153 160 232 263 266 284 278 281 292
218 227 239 249 256 257 254 266 259 236 224 225 251 264 288 306 311 47 62 56 73 92 95 96 104 97 105 109 136 127 114 112 127 150 156 161 183 197 208 221 209 225 254 261 264 261 279 282 281
229 231 234 239 239 250 255 255 263 238 231 229 241 259 275 280 270 275 281 332 344 355 16 33 74 87 89 78 157 158 146 146 212 217 218 217 233 259 279 286 282 275 273 275 278 274 280 288 281
229 232 234 231 235 242 251 246 252 251 242 234 234 244 261 267 267 267 265 278 285 285 294 296 317 321 332 347 225 218 234 249 261 266 259 255 262 276 287 288 287 284 279 276 277 286 288 295 294
231 231 233 236 241 246 243 241 250 248 244 237 237 241 246 254 259 260 262 266 272 275 278 283 292 294 293 294 273 256 256 257 262 272 270 271 277 283 287 289 284 283 282 276 279 281 285 291 293
231 230 236 244 245 243 244 244 245 244 241 239 244 246 249 254 260 261 262 261 261 268 269 271 275 282 280 279 280 274 273 268 266 274 275 279 283 285 288 288 282 283 286 284 284 284 287 287 290
232 230 231 237 246 252 251 249 250 248 246 246 251 252 251 254 258 262 262 262 262 264 266 268 271 275 275 270 275 277 276 272 272 275 277 280 284 286 284 286 284 283 285 286 283 282 286 286 288
233 232 234 241 245 249 253 253 253 253 250 248 252 256 255 255 256 263 268 266 264 263 265 266 268 270 273 271 274 276 276 273 271 273 276 277 282 286 288 287 285 283 285 289 291 283 285 287 286
233 233 236 237 242 247 254 254 254 254 255 253 252 253 254 255 255 259 265 265 263 264 266 268 268 267 269 272 273 277 278 275 273 273 273 274 277 279 281 283 283 284 286 289 289 288 285 285 285
236 237 237 239 241 244 253 256 256 257 254 254 255 255 255 257 256 257 260 259 260 262 265 268 268 267 270 272 273 275 276 275 273 272 273 274 278 279 280 284 285 288 287 290 291 293 291 289 286
240 241 240 241 245 247 249 255 257 258 257 256 258 259 257 258 258 258 258 259 259 262 265 267 267 268 270 273 274 275 273 272 274 276 275 274 278 284 285 287 289 290 291 292 293 294 291 288 286
Height
5890 5890 5890 5890 5891 5892 5891 5890 5889 5888 5887 5887 5886 5885 5884 5884 5884 5885 5883 5881 5881 5881 5880 5880 5880 5880 5880 5880 5879 5879 5879 5879 5879 5878 5877 5876 5876 5876 5877 5878 5878 5879 5881 5882 5884 5885 5885 5887 5887
5892 5892 5892 5892 5893 5893 5893 5891 5890 5889 5888 5887 5886 5885 5884 5883 5883 5883 5882 5882 5882 5882 5881 5881 5881 5881 5881 5880 5880 5880 5880 5880 5879 5879 5878 5878 5878 5878 5878 5879 5880 5881 5882 5884 5885 5886 5888 5888 5889
5894 5894 5895 5894 5894 5894 5894 5892 5891 5890 5889 5888 5887 5886 5885 5883 5882 5882 5882 5882 5883 5883 5882 5882 5882 5882 5881 5881 5880 5880 5880 5879 5879 5879 5879 5879 5879 5879 5880 5881 5881 5882 5884 5885 5887 5888 5889 5890 5891
5896 5896 5897 5897 5896 5895 5894 5893 5892 5891 5890 5888 5887 5886 5884 5883 5881 5880 5882 5883 5884 5884 5883 5883 5883 5883 5882 5881 5881 5880 5879 5879 5880 5880 5880 5880 5881 5881 5882 5883 5883 5885 5886 5887 5888 5889 5890 5891 5892
5898 5898 5900 5899 5898 5897 5896 5894 5893 5891 5890 5889 5888 5886 5885 5884 5882 5881 5883 5884 5885 5885 5884 5884 5884 5884 5883 5882 5881 5880 5879 5879 5879 5880 5881 5882 5883 5883 5884 5885 5886 5887 5888 5889 5890 5891 5891 5892 5893
5900 5901 5903 5901 5899 5898 5897 5895 5894 5892 5891 5890 5889 5888 5887 5886 5885 5885 5885 5886 5886 5886 5885 5885 5885 5885 5884 5883 5881 5880 5879 5879 5879 5880 5882 5883 5884 5885 5886 5887 5888 5888 5889 5891 5891 5892 5893 5894 5894
5903 5903 5903 5903 5901 5900 5899 5897 5895 5894 5892 5891 5890 5889 5888 5888 5887 5887 5887 5887 5887 5887 5887 5887 5886 5886 5885 5883 5882 5880 5879 5879 5880 5881 5883 5885 5886 5887 5888 5888 5889 5890 5891 5892 5893 5893 5894 5895 5895
5904 5906 5905 5904 5903 5902 5900 5898 5897 5895 5894 5893 5892 5891 5891 5890 5889 5889 5889 5889 5889 5889 5889 5888 5888 5887 5886 5885 5883 5881 5879 5879 5882 5883 5885 5886 5887 5888 5889 5890 5890 5891 5892 5893 5894 5895 5895 5896 5897
5906 5908 5907 5906 5905 5904 5902 5900 5898 5897 5896 5895 5894 5894 5893 5892 5892 5891 5891 5891 5891 5890 5890 5890 5889 5889 5888 5886 5884 5883 5881 5882 5884 5885 5887 5888 5889 5890 5890 5891 5892 5893 5893 5894 5895 5896 5896 5897 5897
5908 5909 5909 5907 5906 5905 5903 5902 5901 5899 5898 5897 5896 5895 5895 5894 5893 5893 5893 5893 5892 5892 5892 5891 5891 5890 5890 5889 5887 5887 5886 5886 5887 5888 5889 5889 5890 5891 5891 5892 5893 5894 5894 5895 5895 5896 5897 5897 5898
5909 5909 5909 5908 5907 5906 5905 5904 5903 5901 5900 5899 5898 5897 5897 5896 5895 5895 5895 5895 5894 5894 5893 5893 5892 5892 5891 5891 5890 5890 5889 5890 5890 5890 5891 5892 5892 5892 5893 5893 5894 5895 5895 5896 5896 5897 5897 5898 5898
5911 5910 5910 5910 5909 5907 5906 5906 5904 5903 5902 5901 5900 5899 5898 5897 5897 5897 5896 5896 5896 5895 5895 5895 5894 5894 5893 5893 5893 5893 5892 5892 5893 5893 5893 5894 5894 5894 5895 5895 5895 5896 5896 5897 5897 5898 5898 5898 5899
5911 5911 5911 5911 5910 5909 5908 5907 5906 5905 5904 5903 5902 5901 5900 5899 5899 5898 5898 5898 5897 5897 5897 5896 5896 5895 5895 5895 5895 5895 5895 5895 5895 5895 5895 5895 5896 5896 5896 5897 5897 5897 5897 5898 5898 5898 5899 5899 5899
5912 5912 5912 5912 5911 5910 5909 5909 5908 5907 5906 5905 5904 5903 5902 5901 5901 5900 5900 5900 5899 5899 5899 5898 5897 5897 5897 5897 5897 5897 5896 5897 5897 5897 5897 5897 5897 5897 5898 5898 5898 5898 5898 5899 5899 5899 5899 5899 5899
5913 5913 5913 5913 5912 5911 5911 5910 5909 5908 5907 5906 5906 5905 5904 5903 5902 5902 5902 5901 5901 5901 5900 5899 5899 5899 5898 5898 5898 5898 5898 5898 5898 5898 5898 5898 5898 5899 5899 5899 5899 5899 5899 5899 5899 5899 5899 5900 5899
5913 5914 5915 5914 5913 5912 5914 5913 5911 5909 5909 5908 5907 5906 5906 5905 5904 5903 5903 5903 5902 5902 5901 5901 5900 5900 5900 5900 5900 5899 5899 5899 5899 5899 5899 5899 5899 5899 5900 5900 5900 5900 5900 5900 5900 5900 5900 5900 5900
5914 5915 5915 5914 5913 5913 5913 5913 5912 5910 5910 5909 5908 5908 5907 5906 5905 5905 5904 5904 5903 5903 5902 5902 5902 5902 5902 5901 5901 5901 5901 5900 5900 5900 5900 5900 5900 5900 5900 5900 5901 5901 5901 5901 5900 5901 5900 5900 5900
5915 5915 5915 5914 5913 5913 5913 5913 5912 5911 5911 5910 5910 5909 5908 5908 5907 5906 5906 5905 5905 5904 5904 5903 5903 5903 5903 5903 5902 5902 5902 5902 5901 5901 5901 5901 5901 5901 5901 5901 5901 5901 5901 5901 5901 5901 5900 5900 5900
5913 5914 5914 5914 5913 5913 5913 5913 5913 5912 5911 5911 5910 5910 5909 5909 5908 5907 5907 5906 5906 5905 5905 5904 5904 5903 5903 5903 5903 5903 5903 5903 5902 5902 5902 5902 5902 5901 5901 5901 5901 5901 5901 5901 5901 5900 5900 5900 5899
5912 5913 5913 5913 5913 5913 5913 5913 5913 5912 5912 5912 5911 5910 5910 5909 5909 5908 5908 5907 5907 5907 5906 5906 5905 5905 5904 5904 5904 5904 5903 5903 5903 5903 5902 5902 5902 5902 5902 5902 5901 5901 5900 5900 5900 5900 5899 5899 5899
5910 5911 5912 5912 5912 5912 5912 5913 5913 5913 5912 5912 5911 5911 5910 5910 5910 5909 5909 5908 5908 5907 5907 5907 5906 5906 5905 5905 5904 5904 5904 5904 5903 5903 5903 5903 5902 5902 5902 5901 5901 5901 5900 5900 5899 5899 5899 5898 5898
5909 5909 5910 5910 5911 5912 5913 5914 5914 5912 5912 5912 5911 5911 5911 5911 5910 5910 5910 5909 5908 5908 5907 5907 5907 5906 5905 5905 5904 5904 5904 5904 5904 5903 5903 5903 5902 5902 5902 5901 5901 5900 5900 5899 5899 5898 5898 5897 5897
5906 5907 5908 5909 5910 5911 5912 5913 5914 5912 5912 5911 5911 5911 5911 5910 5910 5910 5910 5909 5909 5908 5908 5907 5907 5906 5906 5905 5905 5905 5904 5904 5904 5903 5903 5903 5902 5902 5901 5901 5900 5899 5899 5898 5898 5897 5896 5896 5895
5903 5905 5906 5907 5908 5910 5910 5911 5912 5911 5910 5910 5910 5910 5910 5910 5910 5909 5909 5909 5908 5908 5907 5907 5907 5906 5906 5905 5905 5904 5904 5904 5904 5903 5903 5902 5902 5901 5900 5899 5899 5898 5898 5897 5897 5896 5895 5894 5894
5900 5903 5906 5907 5907 5908 5908 5908 5909 5909 5908 5909 5909 5909 5909 5909 5909 5908 5908 5908 5908 5907 5907 5907 5906 5906 5905 5905 5904 5904 5904 5903 5903 5902 5902 5901 5900 5899 5899 5898 5897 5897 5896 5896 5895 5895 5894 5893 5892
5897 5900 5903 5906 5907 5907 5905 5905 5907 5906 5906 5906 5907 5907 5907 5907 5907 5907 5907 5907 5906 5906 5906 5906 5905 5905 5904 5904 5903 5903 5902 5902 5901 5901 5900 5899 5899 5898 5897 5896 5895 5895 5894 5894 5893 5892 5891 5890 5889
5893 5895 5899 5901 5901 5903 5903 5903 5904 5903 5904 5904 5904 5904 5905 5905 5905 5905 5905 5905 5905 5905 5905 5904 5904 5903 5903 5902 5902 5901 5900 5900 5899 5898 5898 5897 5897 5896 5895 5894 5894 5893 5892 5891 5890 5889 5888 5887 5886
5889 5891 5894 5896 5897 5899 5900 5900 5901 5900 5901 5901 5901 5902 5902 5902 5902 5902 5902 5903 5903 5902 5902 5902 5902 5901 5901 5900 5899 5899 5898 5897 5897 5896 5896 5895 5894 5893 5893 5892 5891 5890 5889 5888 5887 5886 5885 5884 5883
5884 5886 5888 5890 5893 5895 5897 5900 5897 5897 5897 5898 5898 5898 5898 5899 5899 5899 5899 5899 5900 5900 5899 5899 5899 5899 5898 5897 5897 5896 5896 5895 5894 5894 5893 5892 5891 5890 5890 5889 5888 5887 5886 5885 5884 5883 5882 5880 5879
5878 5880 5883 5885 5886 5888 5891 5896 5892 5892 5893 5893 5893 5894 5894 5895 5895 5895 5896 5896 5896 5896 5896 5896 5896 5895 5895 5894 5894 5893 5893 5892 5891 5890 5890 5889 5888 5887 5886 5886 5885 5884 5883 5881 5880 5879 5877 5876 5874